Regional Weather Roundup
Issued by NWS Albany, NY

Home | Current Version | Previous Version | Text Only | Print | Product List | Glossary On
Versions: 1 2 3 4 5 6 7 8 9 10 11 12 13 14 15 16 17 18 19 20 21 22 23 24 25 26 27 28 29 30 31 32 33 34 35 36 37 38 39 40 41 42 43 44 45 46 47 48 49 50
325
ASUS41 KALY 241710
RWRALY

NEW YORK STATE HOURLY WEATHER ROUNDUP
NATIONAL WEATHER SERVICE ALBANY NY
100 PM EDT FRI MAR 24 2017

NOTE: "FAIR" INDICATES FEW OR NO CLOUDS BELOW 12,000 FEET WITH NO
SIGNIFICANT WEATHER AND/OR NO OBSTRUCTIONS TO VISIBILITY.

NYZ032-033-038>043-046>054-057>066-NYZ062>081-082-084-241800-
EAST


CITY           SKY/WX    TMP DP  RH WIND       PRES   REMARKS
ALBANY         CLOUDY    36  23  59 S16       30.19F WCI  26
GLENS FALLS    FRZ RAIN  31  27  85 SW8       30.18F FOG     WCI  23
POUGHKEEPSIE   CLOUDY    39  26  59 VRB7      30.28F WCI  34
NEWBURGH       LGT RAIN  37  32  81 S9        30.29F WCI  31
MONTGOMERY     LGT RAIN  37  31  78 SW9       30.27F WCI  30
WHITE PLAINS   LGT RAIN  43  24  47 SW9G17    30.31F
ISLIP          CLOUDY    45  31  58 S14G28    30.34F
NEW YORK CITY  CLOUDY    49  22  34 S14G26    30.32F
CENTRAL PARK   CLOUDY    47  22  37 W8        30.34F
$$

NYZ005>009-017-018-044>046-055-056-241800-
CENTRAL


CITY           SKY/WX    TMP DP  RH WIND       PRES   REMARKS
FULTON         CLOUDY    40  34  79 S10       30.05F WCI  33
SYRACUSE       CLOUDY    41  35  79 S8        30.06F
ROME           LGT RAIN  34  33  96 E12       30.11F WCI  25
ELMIRA         SUNNY     48  38  68 SW12      30.10F
BINGHAMTON     RAIN      32  31  96 S9        30.13F WCI  24
MONTICELLO     CLOUDY    30  30 100 CALM      30.23F
$$

NYZ026>034-041>043-087-241800-
NORTH


CITY           SKY/WX    TMP DP  RH WIND       PRES   REMARKS
WATERTOWN      CLOUDY    39  37  92 S10G20    30.02F WCI  32
FORT DRUM      NOT AVBL
MASSENA        SNOW      33  31  92 E5        30.07F VSB 1/2 WCI  29
SARANAC LAKE   FLURRIES  29  26  89 SW10      30.01F WCI  20
PLATTSBURGH    FLURRIES  31  20  63 S12       30.12F WCI  22
$$

NYZ001>004-010>016-019>021-085-241800-
WEST


CITY           SKY/WX    TMP DP  RH WIND       PRES   REMARKS
NIAGARA FALLS  CLOUDY    56  42  59 SW16G25   29.98F
BUFFALO        CLOUDY    51  40  65 SW16      29.99F
DUNKIRK        CLOUDY    61  44  53 W8G22     30.02F
JAMESTOWN      CLOUDY    54  39  58 SW17G23   30.06S
WELLSVILLE     CLOUDY    50  40  68 SW13G23   30.06F
ROCHESTER      PTSUNNY   52  42  69 SW14      29.98F
PENN YAN       MOSUNNY   44  36  73 S15G28    30.04F
$$

             KEY
       WCI = WIND CHILL INDEX
       VSB = VISIBILITY
       HX  = HEAT INDEX
$$




USA.gov is the U.S. government's official web portal to all federal, state and local government web resources and services.